CST,Max TemperatureF,Mean TemperatureF,Min TemperatureF,Max Dew PointF,MeanDew PointF,Min DewpointF,Max Humidity, Mean Humidity, Min Humidity, Max Sea Level PressureIn, Mean Sea Level PressureIn, Min Sea Level PressureIn, Max VisibilityMiles, Mean VisibilityMiles, Min VisibilityMiles, Max Wind SpeedMPH, Mean Wind SpeedMPH, Max Gust SpeedMPH,PrecipitationIn, CloudCover, Events, WindDirDegrees
2011-11-1,72,59,46,56,46,38,96,65,29,30.27,30.22,30.19,10,10,10,15,7,,0.00,0,Rain,84
2011-11-2,74,62,51,62,55,48,92,77,57,30.26,30.19,30.14,10,10,10,15,8,22,0.00,0,,93
2011-11-3,72,62,50,70,62,43,100,87,61,30.14,30.05,29.99,10,10,4,17,7,17,0.05,5,Rain,252
2011-11-4,62,53,44,48,44,40,92,73,54,30.15,30.11,30.05,10,10,10,15,7,21,0.00,1,,337
2011-11-5,71,58,45,55,48,41,99,76,34,30.18,30.14,30.11,10,10,10,15,7,21,0.00,0,,78
2011-11-6,73,62,53,60,54,46,96,74,58,30.25,30.20,30.14,10,10,10,15,10,,0.00,1,,93
2011-11-7,75,66,56,65,61,56,99,83,62,30.25,30.19,30.11,10,10,10,15,9,,0.00,2,,103
2011-11-8,76,68,61,67,65,61,100,87,71,30.14,30.09,30.04,10,10,10,16,9,23,0.00,3,,106
2011-11-9,74,64,53,68,63,47,100,93,79,30.13,30.05,30.01,10,9,2,15,8,21,0.06,5,Rain,49
2011-11-10,61,53,43,46,35,28,78,54,30,30.27,30.19,30.12,10,10,10,22,15,30,0.00,1,Rain,357
2011-11-11,62,51,40,43,33,25,84,53,26,30.33,30.27,30.23,10,10,10,9,5,,0.00,0,,279
2011-11-12,68,54,39,52,44,39,100,88,37,30.30,30.23,30.16,10,4,0,7,1,,0.00,1,Fog,63
2011-11-13,76,66,56,68,64,54,100,90,65,30.15,30.09,30.05,10,10,10,12,6,20,0.01,7,Rain,161
2011-11-14,71,70,68,72,69,65,100,98,80,30.07,30.02,29.96,10,9,2,17,8,24,0.12,7,Rain,175
2011-11-15,77,72,68,73,70,68,100,99,85,29.97,29.91,29.86,10,9,2,14,9,20,0.26,6,Rain,185
2011-11-16,80,74,67,72,69,66,100,95,63,29.99,29.87,29.82,10,9,3,20,10,36,0.16,4,Rain-Thunderstorm,208
2011-11-17,68,57,44,66,46,28,95,67,28,30.33,30.18,29.99,10,10,10,18,8,25,0.00,3,Rain,12
2011-11-18,64,50,37,52,41,28,83,65,44,30.34,30.27,30.19,10,10,0,14,9,20,0.00,1,,76
2011-11-19,76,65,54,68,61,51,100,89,68,30.20,30.17,30.12,10,10,7,13,7,,0.00,3,,88
2011-11-20,78,72,67,72,69,68,100,99,78,30.26,30.19,30.16,10,4,0,12,8,,0.00,6,Fog,118
2011-11-21,78,72,67,75,70,68,100,99,79,30.26,30.20,30.07,10,4,0,14,5,18,0.01,6,Fog-Rain,86
2011-11-22,77,72,66,73,69,66,100,95,83,30.07,30.03,29.98,10,9,4,13,7,18,0.34,5,Rain-Thunderstorm,171
2011-11-23,70,62,52,68,59,50,100,85,52,30.25,30.13,30.05,10,10,10,14,5,,0.00,4,,16
2011-11-24,64,55,46,54,50,46,99,82,52,30.33,30.28,30.23,10,10,10,10,7,,0.00,0,,68
2011-11-25,72,60,48,62,57,46,94,82,69,30.26,30.19,30.10,10,10,10,17,9,25,0.00,0,,91
2011-11-26,76,70,64,70,67,61,100,93,70,30.11,30.00,29.96,10,8,2,24,14,34,0.28,4,Rain,145
2011-11-27,69,58,47,69,58,42,100,95,82,30.03,29.96,29.91,10,10,4,18,9,24,0.13,6,Rain,325
2011-11-28,50,46,39,43,40,33,88,81,66,30.04,30.00,29.95,10,10,6,16,11,24,0.00,6,Rain,304
2011-11-29,59,48,37,43,36,32,91,66,40,30.16,30.04,29.97,10,10,10,12,6,18,0.00,0,,303
2011-11-30,56,48,38,39,36,31,93,71,38,30.23,30.19,30.14,10,10,10,10,4,,0.00,0,,3